| time (UTC) | temp F | wind direction | speed MPH | gust MPH | rain 1hr in | rain 24hr in | rain mn in | humidity % | barometer mb |
| 20260902211554 | 88 | 0 | 0.0 | 2.0 | 0.00 | 0.26 | 0.26 | 59 | 1010.2 |
| 20260902204552 | 86 | 0 | 0.0 | 5.0 | 0.00 | 0.26 | 0.26 | 60 | 1010.4 |
| 20260902203045 | 86 | 352 | 1.0 | 3.0 | 0.00 | 0.26 | 0.26 | 62 | 1010.5 |
| 20260902201542 | 85 | 0 | 0.0 | 0.0 | 0.00 | 0.26 | 0.26 | 64 | 1010.6 |
| 20260902200106 | 85 | 325 | 1.0 | 5.0 | 0.00 | 0.26 | 0.26 | 63 | 1010.6 |
| 20260902194559 | 86 | 355 | 0.0 | 2.0 | 0.00 | 0.26 | 0.26 | 62 | 1010.8 |
| 20260902193053 | 85 | 0 | 0.0 | 0.0 | 0.00 | 0.26 | 0.26 | 61 | 1010.9 |
| 20260902191559 | 85 | 0 | 0.0 | 4.0 | 0.00 | 0.26 | 0.26 | 63 | 1011.1 |
| 20260902190105 | 84 | 0 | 0.0 | 6.0 | 0.00 | 0.26 | 0.26 | 64 | 1011.2 |
| 20260902184623 | 83 | 165 | 2.0 | 5.0 | 0.00 | 0.26 | 0.26 | 65 | 1011.1 |
| 20260902183054 | 84 | 0 | 0.0 | 3.0 | 0.00 | 0.26 | 0.26 | 64 | 1011.3 |
| 20260902181608 | 83 | 119 | 0.0 | 3.0 | 0.00 | 0.26 | 0.26 | 65 | 1011.4 |
| 20260902180052 | 82 | 0 | 0.0 | 5.0 | 0.00 | 0.26 | 0.26 | 67 | 1011.5 |
| 20260902174545 | 81 | 227 | 1.0 | 8.0 | 0.00 | 0.26 | 0.26 | 69 | 1012.0 |
| 20260902173055 | 81 | 248 | 0.0 | 6.0 | 0.00 | 0.26 | 0.26 | 68 | 1012.2 |
| 20260902171614 | 80 | 292 | 0.0 | 3.0 | 0.00 | 0.26 | 0.26 | 69 | 1012.3 |
| 20260902170051 | 78 | 261 | 1.0 | 8.0 | 0.00 | 0.26 | 0.26 | 74 | 1012.4 |
| 20260902164547 | 78 | 227 | 2.0 | 7.0 | 0.00 | 0.26 | 0.26 | 74 | 1012.5 |
| 20260902163054 | 77 | 113 | 1.0 | 8.0 | 0.00 | 0.26 | 0.26 | 74 | 1012.4 |
| 20260902161552 | 76 | 0 | 3.0 | 9.0 | 0.00 | 0.26 | 0.26 | 75 | 1012.4 |
| 20260902160045 | 75 | 130 | 1.0 | 6.0 | 0.00 | 0.26 | 0.26 | 75 | 1012.1 |
| 20260902154552 | 75 | 200 | 3.0 | 7.0 | 0.00 | 0.26 | 0.26 | 76 | 1012.1 |
| 20260902153053 | 74 | 125 | 3.0 | 8.0 | 0.00 | 0.26 | 0.26 | 78 | 1011.9 |
| 20260902151548 | 73 | 153 | 2.0 | 9.0 | 0.00 | 0.26 | 0.26 | 80 | 1011.8 |
| 20260902150054 | 72 | 109 | 2.0 | 9.0 | 0.00 | 0.26 | 0.26 | 81 | 1012.0 |
| 20260902144558 | 71 | 140 | 2.0 | 7.0 | 0.00 | 0.26 | 0.26 | 82 | 1012.1 |
| 20260902143048 | 70 | 107 | 3.0 | 8.0 | 0.00 | 0.26 | 0.26 | 86 | 1011.9 |
| 20260902141550 | 68 | 175 | 2.0 | 7.0 | 0.00 | 0.26 | 0.26 | 89 | 1011.8 |
| 20260902140056 | 67 | 146 | 2.0 | 5.0 | 0.00 | 0.26 | 0.26 | 92 | 1012.0 |
| 20260902134607 | 65 | 180 | 1.0 | 8.0 | 0.00 | 0.26 | 0.26 | 93 | 1012.1 |
| 20260902133053 | 64 | 182 | 3.0 | 8.0 | 0.00 | 0.26 | 0.26 | 93 | 1012.3 |
| 20260902131552 | 63 | 153 | 1.0 | 7.0 | 0.00 | 0.26 | 0.26 | 94 | 1012.3 |
| 20260902130053 | 63 | 0 | 1.0 | 9.0 | 0.00 | 0.26 | 0.26 | 94 | 1012.2 |
| 20260902124556 | 63 | 113 | 2.0 | 10.0 | 0.00 | 0.26 | 0.26 | 94 | 1012.1 |
| 20260902123059 | 62 | 0 | 0.0 | 3.0 | 0.00 | 0.26 | 0.26 | 94 | 1011.8 |
| 20260902121553 | 62 | 0 | 0.0 | 0.0 | 0.00 | 0.26 | 0.26 | 94 | 1012.1 |
| 20260902120055 | 63 | 86 | 0.0 | 3.0 | 0.00 | 0.26 | 0.26 | 94 | 1012.1 |
| 20260902114554 | 63 | 0 | 0.0 | 7.0 | 0.00 | 0.26 | 0.26 | 94 | 1012.1 |
| 20260902113048 | 63 | 0 | 0.0 | 3.0 | 0.00 | 0.26 | 0.26 | 94 | 1012.0 |
| 20260902111551 | 63 | 0 | 0.0 | 2.0 | 0.00 | 0.26 | 0.26 | 93 | 1012.4 |
| 20260902110054 | 63 | 0 | 0.0 | 3.0 | 0.00 | 0.26 | 0.26 | 94 | 1012.8 |
| 20260902104551 | 63 | 215 | 2.0 | 10.0 | 0.00 | 0.26 | 0.26 | 94 | 1013.4 |
| 20260902103046 | 64 | 176 | 3.0 | 7.0 | 0.00 | 0.26 | 0.26 | 94 | 1013.7 |
| 20260902101557 | 64 | 0 | 3.0 | 7.0 | 0.00 | 0.26 | 0.26 | 94 | 1013.9 |
| 20260902100052 | 64 | 0 | 4.0 | 8.0 | 0.00 | 0.26 | 0.26 | 94 | 1013.6 |
| 20260902094555 | 64 | 0 | 0.0 | 0.0 | 0.00 | 0.26 | 0.26 | 94 | 1012.7 |
| 20260902093056 | 64 | 0 | 0.0 | 0.0 | 0.00 | 0.26 | 0.26 | 93 | 1011.9 |
| 20260902091554 | 64 | 0 | 0.0 | 0.0 | 0.00 | 0.26 | 0.26 | 93 | 1012.1 |
| 20260902090050 | 64 | 0 | 0.0 | 0.0 | 0.01 | 0.26 | 0.26 | 93 | 1012.0 |
| 20260902084555 | 64 | 0 | 0.0 | 5.0 | 0.01 | 0.26 | 0.26 | 93 | 1012.2 |
| 20260902083049 | 65 | 155 | 3.0 | 19.0 | 0.02 | 0.26 | 0.26 | 93 | 1012.1 |
| 20260902081551 | 64 | 26 | 3.0 | 6.0 | 0.05 | 0.26 | 0.26 | 93 | 1011.0 |
| 20260902080054 | 65 | 5 | 2.0 | 7.0 | 0.09 | 0.25 | 0.25 | 92 | 1010.9 |
| 20260902074608 | 65 | 62 | 3.0 | 11.0 | 0.12 | 0.25 | 0.25 | 92 | 1010.5 |
| 20260902073044 | 65 | 0 | 0.0 | 10.0 | 0.14 | 0.24 | 0.24 | 92 | 1011.7 |
| 20260902071553 | 66 | 45 | 3.0 | 6.0 | 0.16 | 0.21 | 0.21 | 92 | 1012.6 |
| 20260902070054 | 66 | 0 | 0.0 | 10.0 | 0.12 | 0.16 | 0.16 | 91 | 1013.4 |
| 20260902064551 | 67 | 55 | 2.0 | 5.0 | 0.10 | 0.13 | 0.13 | 91 | 1013.8 |
| 20260902063113 | 67 | 190 | 7.0 | 21.0 | 0.07 | 0.09 | 0.09 | 90 | 1016.3 |
| 20260902061554 | 68 | 229 | 7.0 | 14.0 | 0.04 | 0.05 | 0.05 | 90 | 1016.0 |
| 20260902060106 | 68 | 201 | 3.0 | 5.0 | 0.04 | 0.04 | 0.04 | 88 | 1013.5 |
| 20260902054552 | 69 | 170 | 1.0 | 4.0 | 0.03 | 0.03 | 0.03 | 87 | 1012.3 |
| 20260902053043 | 69 | 13 | 3.0 | 6.0 | 0.02 | 0.02 | 0.02 | 87 | 1011.0 |
| 20260902051557 | 70 | 323 | 1.0 | 4.0 | 0.01 | 0.01 | 0.01 | 86 | 1012.5 |
| 20260902050049 | 70 | 0 | 0.0 | 0.0 | 0.00 | 0.00 | 0.00 | 85 | 1013.1 |
| 20260902044546 | 71 | 0 | 0.0 | 0.0 | 0.00 | 0.00 | 0.00 | 85 | 1012.4 |
| 20260902043109 | 71 | 0 | 0.0 | 0.0 | 0.00 | 0.00 | 0.00 | 86 | 1011.9 |
| 20260902041603 | 70 | 0 | 0.0 | 0.0 | 0.00 | 0.00 | 0.00 | 87 | 1011.8 |
| 20260902040050 | 69 | 0 | 0.0 | 0.0 | 0.00 | 0.00 | 0.00 | 88 | 1012.1 |
| 20260902034550 | 70 | 0 | 0.0 | 0.0 | 0.00 | 0.00 | 0.00 | 89 | 1012.1 |
| 20260902033054 | 70 | 0 | 0.0 | 0.0 | 0.00 | 0.00 | 0.00 | 88 | 1012.6 |
| 20260902031554 | 70 | 0 | 0.0 | 0.0 | 0.00 | 0.00 | 0.00 | 88 | 1012.9 |
| 20260902030050 | 70 | 0 | 0.0 | 0.0 | 0.00 | 0.00 | 0.00 | 88 | 1012.8 |
| 20260902024557 | 70 | 0 | 0.0 | 0.0 | 0.00 | 0.00 | 0.00 | 88 | 1012.7 |
| 20260902023053 | 71 | 0 | 0.0 | 0.0 | 0.00 | 0.00 | 0.00 | 87 | 1012.6 |
| 20260902021554 | 71 | 0 | 0.0 | 0.0 | 0.00 | 0.00 | 0.00 | 86 | 1012.7 |
| 20260902020050 | 72 | 0 | 0.0 | 0.0 | 0.00 | 0.00 | 0.00 | 86 | 1012.6 |
| 20260902014551 | 72 | 0 | 0.0 | 0.0 | 0.00 | 0.00 | 0.00 | 85 | 1012.4 |
| 20260902013056 | 74 | 0 | 0.0 | 0.0 | 0.00 | 0.00 | 0.00 | 84 | 1012.4 |
| 20260902011544 | 75 | 0 | 0.0 | 0.0 | 0.00 | 0.00 | 0.00 | 83 | 1012.3 |
| 20260902010056 | 76 | 0 | 0.0 | 0.0 | 0.00 | 0.00 | 0.00 | 81 | 1012.1 |
| 20260902004558 | 77 | 0 | 0.0 | 0.0 | 0.00 | 0.00 | 0.00 | 79 | 1012.2 |
| 20260902003125 | 78 | 0 | 0.0 | 0.0 | 0.00 | 0.00 | 0.00 | 79 | 1012.4 |
| 20260902001545 | 79 | 0 | 0.0 | 0.0 | 0.00 | 0.00 | 0.00 | 78 | 1012.4 |
| 20260902000057 | 80 | 0 | 0.0 | 0.0 | 0.00 | 0.00 | 0.00 | 77 | 1012.6 |
| 20260901234549 | 81 | 0 | 0.0 | 0.0 | 0.00 | 0.00 | 0.00 | 75 | 1012.7 |
| 20260901233043 | 81 | 0 | 0.0 | 0.0 | 0.00 | 0.00 | 0.00 | 74 | 1012.7 |
| 20260901231555 | 81 | 0 | 0.0 | 0.0 | 0.00 | 0.00 | 0.00 | 73 | 1012.5 |
| 20260901230043 | 82 | 0 | 0.0 | 0.0 | 0.00 | 0.00 | 0.00 | 74 | 1012.4 |
| 20260901224554 | 81 | 0 | 0.0 | 0.0 | 0.00 | 0.00 | 0.00 | 70 | 1012.5 |
| 20260901223044 | 81 | 0 | 0.0 | 0.0 | 0.00 | 0.00 | 0.00 | 71 | 1012.4 |
| 20260901221544 | 81 | 0 | 0.0 | 0.0 | 0.00 | 0.00 | 0.00 | 71 | 1012.4 |
| 20260901220053 | 81 | 0 | 0.0 | 0.0 | 0.00 | 0.00 | 0.00 | 71 | 1012.5 |
| 20260901214546 | 82 | 0 | 0.0 | 0.0 | 0.00 | 0.00 | 0.00 | 69 | 1012.7 |
| 20260901213056 | 82 | 0 | 0.0 | 0.0 | 0.00 | 0.00 | 0.00 | 69 | 1012.4 |